Regional Weather Roundup
Issued by NWS Sioux Falls, SD

Home | Current Version | Previous Version | Graphics & Text | Print | Product List | Glossary On
Versions: 1 2 3 4 5 6 7 8 9 10 11 12 13 14 15 16 17 18 19 20 21 22 23 24 25 26 27 28 29 30 31 32 33 34 35 36 37 38 39 40 41 42 43 44 45 46 47 48 49 50
000
ASUS43 KFSD 030010
RWRFSD

WEATHER ROUNDUP FOR SE SOUTH DAKOTA/SW MINNESOTA/NW IOWA
NATIONAL WEATHER SERVICE SIOUX FALLS SD
600 PM CST MON MAR 02 2015

NOTE: "FAIR" INDICATES FEW OR NO CLOUDS BELOW 12,000 FEET WITH NO
SIGNIFICANT WEATHER AND OR OBSTRUCTIONS TO VISIBILITY.


SDZ038>040-050-052>070-030100-
SOUTHEAST SOUTH DAKOTA

CITY           SKY/WX    TMP DP  RH WIND       PRES   REMARKS
CHAMBERLAIN    CLOUDY    39  15  38 S14G21    29.85F
6HR MIN TEMP:  33; 6HR MAX TEMP:  43;

HURON          CLOUDY    33  19  56 SE17G28   29.91F WCI  22
6HR MIN TEMP:  30; 6HR MAX TEMP:  36;

MADISON        CLOUDY    27  21  80 S16G23    29.99F WCI  14
MITCHELL       CLOUDY    35  18  49 SE20      29.96F WCI  24
6HR MIN TEMP:  32; 6HR MAX TEMP:  38;

SIOUX FALLS    CLOUDY    30  19  63 SE17G24   30.04F WCI  18
6HR MIN TEMP:  26; 6HR MAX TEMP:  30;

WINNER         MOCLDY    42  12  29 S17       29.82F
YANKTON        CLOUDY    39  18  41 S18G24    30.02F
$$

MNZ071-072-080-081-089-090-097-098-030100-
SOUTHWEST MINNESOTA

CITY           SKY/WX    TMP DP  RH WIND       PRES   REMARKS
FAIRMONT       CLOUDY    25  18  74 SE14      30.15F WCI  13
JACKSON        CLOUDY    27  19  74 SE12      30.13F WCI  16
LUVERNE        CLOUDY    30  21  69 S12       30.07F WCI  21
MARSHALL       CLOUDY    27  16  63 S16       30.10F WCI  14
6HR MIN TEMP:  25; 6HR MAX TEMP:  28;

MONTEVIDEO     CLOUDY    27  18  69 S13G18    30.10F WCI  16
PIPESTONE      CLOUDY    27  19  74 S13       30.05F WCI  16
REDWOOD FALLS  CLOUDY    25  18  74 SE16      30.14F WCI  12
TRACY          CLOUDY    27  19  73 S14       30.10F WCI  15
WINDOM         CLOUDY    25  19  80 SE14      30.12F WCI  13
WORTHINGTON    CLOUDY    25  18  74 S16       30.11F WCI  12
$$

IAZ001>003-012>014-020>022-031-032-NEZ013-014-SDZ071-030100-
NORTHWEST IOWA

CITY           SKY/WX    TMP DP  RH WIND       PRES   REMARKS
CHEROKEE       CLOUDY    30  21  70 SE10      30.11F WCI  21
DENISON        CLOUDY    32  21  64 SE13      30.10F WCI  22
ESTHERVILLE    CLOUDY    24  19  81 SE17      30.14F WCI  11
LE MARS        CLOUDY    32  23  69 SE12G18   30.09F WCI  23
ORANGE CITY    CLOUDY    32  21  64 SE7       30.07F WCI  26
SHELDON        CLOUDY    28  19  69 SE17      30.08F WCI  16
SIOUX CITY     CLOUDY    35  23  61 SE15      30.08F WCI  25
6HR MIN TEMP:  30; 6HR MAX TEMP:  37;

SPENCER        CLOUDY    28  19  69 SE16      30.13F WCI  16
6HR MIN TEMP:  25; 6HR MAX TEMP:  28;

STORM LAKE     CLOUDY    28  21  74 SE16      30.12F WCI  17
$$

ABBREVIATIONS USED IN REMARKS
   TC - TEMPERATURE IN CELSIUS
  WCI - WIND CHILL INDEX
   HX - HEAT INDEX
  VSB - VISIBILITY



USA.gov is the U.S. government's official web portal to all federal, state and local government web resources and services.